Location: Unspecified
(0.0000°N, 0.0000°E)
Time: 17:57:23
(UTC+00:00)

STARLINK 1034 - Pass Details

Date: 19 January 2020
Orbit: 437 x 439 km, 53.0° (Epoch: 17 January)

Event Time Altitude Azimuth Distance (km) Brightness Sun altitude
Rises 18:09:23 0° 284° (WNW) 2,409 8.0 0.2°
Enters shadow 18:41:01 -48° 137° (SE) 10,107 9.9 -7.2°
Exits shadow 18:52:10 -68° 115° (ESE) 12,267 10.4 -9.8°
Maximum altitude 04:16:08 23° 124° (SE) 969 5.5 -26.6°
